カタログに戻る

SAUDICOMSAT 6

運用中通信SSO
NORAD 31121·PAYLOAD·🇸🇦 Saudi Arabia

打ち上げ Apr 17, 2007 から Baikonur Cosmodrome

Loading…

次のパス (今後24時間)

TLE

最新Source: Space-Track

元期: Sep 14, 2026, 03:54 UTC

1 31121U 07012E   26257.16297344  .00000456  00000-0  96492-4 0  9995
2 31121  98.4212 226.3847 0072706  50.4652 310.2945 14.62630323 33192

AllMySatでSAUDICOMSAT 6をリアルタイム追跡

Download on the App Store